WAT5617 DAOR-LFBH

Flight info

Callsign WAT5617
Flight time 1h 59m
Altitude 45000
Route BRF UL58 ARI UM372 ESAMI M372 AMR M143 CJN N10 BANEV DCT URUNA DCT ETPAR DCT ROYAN DCT MAREN
Aircraft C750/M-SBDE3FGHRWXY/S

Departure

Time 2026-05-04 23:59
Airport Béchar Boudghene Ben Ali Lotfi Airport (DAOR)

Arrival

Time 2026-05-05 01:59
Airport La Rochelle Île de Ré Airport (LFBH)
Time Latitude Longitude Altitude Speed Heading
2026-05-04 23:48 31.65646 -2.26356 2652 ft 0 kts 305°
2026-05-04 23:56 31.65644 -2.26361 2657 ft 1 kts 239°
2026-05-04 23:56 31.65630 -2.26344 2654 ft 7 kts 114°
2026-05-04 23:57 31.65602 -2.26266 2651 ft 11 kts 117°
2026-05-04 23:57 31.65595 -2.26182 2650 ft 10 kts 84°
2026-05-04 23:57 31.65624 -2.26120 2649 ft 10 kts 14°
2026-05-04 23:57 31.65713 -2.26112 2648 ft 15 kts
2026-05-04 23:58 31.65813 -2.26109 2649 ft 13 kts
2026-05-04 23:58 31.65856 -2.26122 2649 ft 3 kts 251°
2026-05-04 23:58 31.65790 -2.26126 2649 ft 31 kts 180°
2026-05-04 23:58 31.65215 -2.26123 2653 ft 132 kts 180°
2026-05-04 23:59 31.64115 -2.26125 2829 ft 170 kts 180°
2026-05-04 23:59 31.63304 -2.26141 3204 ft 178 kts 181°
2026-05-04 23:59 31.61681 -2.25712 3812 ft 193 kts 136°
2026-05-04 23:59 31.61068 -2.24238 3985 ft 222 kts 92°
2026-05-05 00:00 31.61577 -2.22449 4308 ft 250 kts 53°
2026-05-05 00:00 31.61998 -2.21941 4422 ft 260 kts 41°
2026-05-05 00:00 31.64373 -2.20980 5099 ft 284 kts 11°
2026-05-05 00:00 31.66304 -2.20567 6137 ft 281 kts 12°
2026-05-05 00:01 31.68264 -2.20125 6817 ft 292 kts 11°
2026-05-05 00:01 31.70254 -2.19723 7713 ft 295 kts 10°
2026-05-05 00:01 31.72275 -2.19329 8634 ft 300 kts
2026-05-05 00:01 31.74351 -2.18907 9587 ft 304 kts 10°
2026-05-05 00:02 31.76468 -2.18469 10332 ft 313 kts
2026-05-05 00:02 31.78704 -2.18012 10603 ft 337 kts
2026-05-05 00:02 31.80996 -2.17546 11417 ft 337 kts
2026-05-05 00:02 31.83323 -2.17071 12191 ft 342 kts
2026-05-05 00:03 31.85689 -2.16587 12945 ft 346 kts
2026-05-05 00:03 31.88086 -2.16097 13704 ft 351 kts
2026-05-05 00:03 31.90482 -2.15607 14379 ft 355 kts
2026-05-05 00:03 31.92921 -2.15108 15149 ft 356 kts
2026-05-05 00:04 31.95369 -2.14606 15866 ft 359 kts
2026-05-05 00:04 31.97835 -2.14101 16622 ft 361 kts
2026-05-05 00:04 32.00336 -2.13588 17391 ft 364 kts
2026-05-05 00:04 32.02843 -2.13074 18190 ft 366 kts
2026-05-05 00:05 32.05370 -2.12555 18904 ft 369 kts
2026-05-05 00:05 32.07915 -2.12033 19590 ft 373 kts
2026-05-05 00:05 32.10461 -2.11510 20292 ft 376 kts
2026-05-05 00:05 32.13055 -2.10975 21013 ft 380 kts
2026-05-05 00:06 32.15672 -2.10438 21706 ft 384 kts
2026-05-05 00:06 32.18331 -2.09891 22453 ft 388 kts
2026-05-05 00:06 32.20968 -2.09348 23162 ft 392 kts
2026-05-05 00:06 32.23668 -2.08791 23816 ft 395 kts
2026-05-05 00:07 32.26405 -2.08226 24394 ft 400 kts
2026-05-05 00:07 32.29170 -2.07656 24968 ft 404 kts
2026-05-05 00:07 32.31920 -2.07089 25528 ft 408 kts
2026-05-05 00:07 32.34736 -2.06506 26106 ft 412 kts
2026-05-05 00:08 32.37592 -2.05916 26674 ft 416 kts
2026-05-05 00:08 32.40424 -2.05330 27242 ft 420 kts
2026-05-05 00:08 32.43322 -2.04730 27796 ft 424 kts
2026-05-05 00:08 32.46251 -2.04124 28360 ft 429 kts
2026-05-05 00:09 32.49212 -2.03668 28864 ft 427 kts 355°
2026-05-05 00:09 32.52163 -2.03745 29477 ft 421 kts 346°
2026-05-05 00:09 32.55041 -2.04313 30074 ft 416 kts 338°
2026-05-05 00:09 32.57821 -2.05259 30607 ft 415 kts 335°
2026-05-05 00:10 32.60601 -2.06222 31179 ft 417 kts 335°
2026-05-05 00:10 32.63371 -2.07162 31724 ft 419 kts 335°
2026-05-05 00:10 32.66184 -2.08130 32255 ft 421 kts 334°
2026-05-05 00:10 32.69011 -2.09116 32812 ft 423 kts 334°
2026-05-05 00:11 32.71845 -2.10101 33335 ft 426 kts 333°
2026-05-05 00:11 32.74693 -2.11083 33869 ft 428 kts 333°
2026-05-05 00:11 32.77551 -2.12070 34321 ft 430 kts 333°
2026-05-05 00:11 32.80434 -2.13071 34810 ft 431 kts 333°
2026-05-05 00:12 32.83310 -2.14067 35418 ft 429 kts 333°
2026-05-05 00:12 32.86175 -2.15060 35977 ft 428 kts 333°
2026-05-05 00:12 32.89030 -2.16053 36537 ft 427 kts 333°
2026-05-05 00:12 32.91880 -2.17044 37101 ft 426 kts 333°
2026-05-05 00:13 32.94731 -2.18035 37665 ft 425 kts 333°
2026-05-05 00:13 32.97533 -2.19010 38238 ft 424 kts 333°
2026-05-05 00:13 33.00376 -2.20000 38802 ft 423 kts 333°
2026-05-05 00:13 33.03201 -2.20986 39234 ft 423 kts 333°
2026-05-05 00:14 33.06041 -2.21978 39634 ft 424 kts 333°
2026-05-05 00:14 33.08877 -2.22967 40034 ft 425 kts 333°
2026-05-05 00:14 33.11719 -2.23959 40442 ft 425 kts 333°
2026-05-05 00:14 33.14562 -2.24952 40856 ft 426 kts 334°
2026-05-05 00:15 33.17367 -2.25933 41257 ft 426 kts 334°
2026-05-05 00:15 33.20215 -2.26930 41667 ft 426 kts 334°
2026-05-05 00:15 33.23069 -2.27929 42063 ft 427 kts 334°
2026-05-05 00:15 33.25926 -2.28930 42439 ft 427 kts 334°
2026-05-05 00:16 33.28786 -2.29933 42820 ft 428 kts 334°
2026-05-05 00:16 33.31618 -2.30927 43191 ft 428 kts 335°
2026-05-05 00:16 33.34480 -2.31931 43562 ft 428 kts 335°
2026-05-05 00:16 33.37346 -2.32938 43936 ft 429 kts 335°
2026-05-05 00:17 33.40226 -2.33951 44291 ft 429 kts 335°
2026-05-05 00:17 33.43097 -2.34961 44638 ft 429 kts 335°
2026-05-05 00:17 33.45925 -2.35956 44916 ft 430 kts 335°
2026-05-05 00:17 33.48811 -2.36974 45061 ft 434 kts 335°
2026-05-05 00:18 33.51735 -2.38010 45047 ft 441 kts 335°
2026-05-05 00:18 33.57732 -2.40123 45061 ft 455 kts 336°
2026-05-05 00:19 33.63863 -2.42292 45062 ft 468 kts 336°
2026-05-05 00:19 33.70207 -2.44535 45070 ft 477 kts 336°
2026-05-05 00:20 33.76602 -2.46802 45066 ft 482 kts 336°
2026-05-05 00:20 33.83083 -2.49103 45058 ft 486 kts 336°
2026-05-05 00:21 33.89559 -2.51406 45058 ft 489 kts 336°
2026-05-05 00:21 33.96109 -2.53739 45061 ft 491 kts 336°
2026-05-05 00:22 34.02686 -2.56085 45067 ft 492 kts 336°
2026-05-05 00:22 34.09259 -2.58434 45068 ft 493 kts 336°
2026-05-05 00:23 34.15801 -2.60776 45065 ft 493 kts 336°
2026-05-05 00:23 34.22391 -2.63138 45061 ft 493 kts 336°
2026-05-05 00:24 34.28970 -2.65501 45056 ft 493 kts 336°
2026-05-05 00:24 34.35556 -2.67870 45056 ft 493 kts 336°
2026-05-05 00:25 34.42107 -2.70231 45056 ft 493 kts 336°
2026-05-05 00:25 34.48695 -2.72608 45058 ft 494 kts 336°
2026-05-05 00:26 34.55271 -2.75050 45039 ft 490 kts 332°
2026-05-05 00:26 34.61273 -2.78660 45057 ft 482 kts 324°
2026-05-05 00:27 34.67220 -2.82489 45051 ft 483 kts 325°
2026-05-05 00:27 34.73173 -2.86346 45049 ft 484 kts 324°
2026-05-05 00:28 34.79095 -2.90185 45051 ft 485 kts 325°
2026-05-05 00:28 34.85064 -2.94059 45056 ft 486 kts 324°
2026-05-05 00:29 34.91052 -2.97843 45034 ft 492 kts 329°
2026-05-05 00:29 34.97773 -3.00082 45040 ft 509 kts 345°
2026-05-05 00:30 35.04924 -2.99984 45043 ft 527 kts
2026-05-05 00:30 35.12069 -2.97564 45068 ft 536 kts 12°
2026-05-05 00:31 35.19141 -2.94698 45058 ft 537 kts 12°
2026-05-05 00:31 35.26255 -2.91846 45056 ft 538 kts 12°
2026-05-05 00:32 35.33375 -2.88958 45057 ft 539 kts 12°
2026-05-05 00:32 35.40521 -2.86075 45048 ft 540 kts 12°
2026-05-05 00:33 35.47625 -2.83190 45043 ft 540 kts 12°
2026-05-05 00:33 35.54769 -2.80292 45039 ft 540 kts 12°
2026-05-05 00:34 35.61926 -2.77380 45026 ft 540 kts 12°
2026-05-05 00:34 35.69014 -2.74492 45028 ft 540 kts 12°
2026-05-05 00:35 35.76159 -2.71575 45020 ft 540 kts 12°
2026-05-05 00:35 35.83304 -2.68652 45019 ft 539 kts 12°
2026-05-05 00:36 35.90382 -2.65674 45015 ft 540 kts 13°
2026-05-05 00:36 35.97508 -2.62650 45011 ft 539 kts 13°
2026-05-05 00:37 36.04569 -2.59675 45011 ft 539 kts 13°
2026-05-05 00:37 36.11686 -2.56644 45000 ft 539 kts 13°
2026-05-05 00:38 36.18797 -2.53632 44997 ft 539 kts 13°
2026-05-05 00:38 36.25854 -2.50621 44997 ft 539 kts 13°
2026-05-05 00:39 36.32960 -2.47594 44990 ft 539 kts 13°
2026-05-05 00:39 36.40032 -2.44569 44985 ft 539 kts 14°
2026-05-05 00:40 36.47089 -2.41549 44987 ft 539 kts 14°
2026-05-05 00:40 36.54190 -2.38502 44972 ft 539 kts 14°
2026-05-05 00:41 36.61310 -2.35441 44971 ft 540 kts 14°
2026-05-05 00:41 36.68388 -2.32393 44976 ft 541 kts 14°
2026-05-05 00:42 36.75511 -2.29319 44972 ft 542 kts 14°
2026-05-05 00:42 36.82671 -2.26615 44952 ft 535 kts
2026-05-05 00:43 36.90015 -2.26197 44966 ft 521 kts 350°
2026-05-05 00:43 36.97191 -2.26961 44982 ft 522 kts 350°
2026-05-05 00:44 37.04487 -2.27256 44993 ft 523 kts 351°
2026-05-05 00:44 37.11756 -2.27843 44992 ft 523 kts 350°
2026-05-05 00:45 37.19014 -2.28261 45008 ft 525 kts 351°
2026-05-05 00:45 37.26311 -2.28768 45017 ft 524 kts 350°
2026-05-05 00:46 37.33575 -2.29222 45026 ft 525 kts 352°
2026-05-05 00:46 37.40905 -2.29556 45033 ft 525 kts 351°
2026-05-05 00:47 37.48187 -2.29977 45034 ft 525 kts 351°
2026-05-05 00:47 37.54261 -2.30276 45043 ft 525 kts 351°
2026-05-05 00:48 37.61565 -2.30673 45045 ft 524 kts 351°
2026-05-05 00:48 37.68824 -2.31095 45053 ft 524 kts 351°
2026-05-05 00:49 37.76132 -2.31566 45061 ft 525 kts 351°
2026-05-05 00:49 37.83442 -2.32001 45056 ft 525 kts 351°
2026-05-05 00:50 37.90721 -2.32461 45062 ft 526 kts 351°
2026-05-05 00:50 37.98051 -2.32907 45065 ft 526 kts 351°
2026-05-05 00:51 38.05330 -2.33363 45064 ft 526 kts 351°
2026-05-05 00:51 38.12676 -2.33817 45064 ft 526 kts 351°
2026-05-05 00:52 38.20002 -2.34274 45061 ft 526 kts 351°
2026-05-05 00:52 38.27270 -2.34727 45057 ft 526 kts 351°
2026-05-05 00:53 38.34586 -2.35184 45059 ft 526 kts 351°
2026-05-05 00:53 38.41913 -2.35837 45053 ft 525 kts 349°
2026-05-05 00:54 38.49181 -2.36490 45056 ft 525 kts 349°
2026-05-05 00:54 38.56446 -2.37187 45055 ft 525 kts 349°
2026-05-05 00:55 38.63756 -2.37862 45061 ft 524 kts 350°
2026-05-05 00:55 38.70989 -2.38548 45050 ft 524 kts 349°
2026-05-05 00:56 38.78298 -2.39232 45046 ft 524 kts 350°
2026-05-05 00:56 38.85540 -2.39918 45044 ft 523 kts 350°
2026-05-05 00:57 38.92815 -2.40605 45050 ft 523 kts 350°
2026-05-05 00:57 39.00047 -2.41290 45048 ft 523 kts 350°
2026-05-05 00:58 39.07332 -2.41976 45044 ft 523 kts 350°
2026-05-05 00:58 39.14547 -2.42655 45046 ft 523 kts 350°
2026-05-05 00:59 39.21818 -2.43343 45043 ft 523 kts 350°
2026-05-05 00:59 39.29087 -2.44030 45036 ft 523 kts 350°
2026-05-05 01:00 39.36320 -2.44716 45042 ft 523 kts 350°
2026-05-05 01:00 39.43604 -2.45409 45032 ft 524 kts 350°
2026-05-05 01:01 39.50887 -2.46102 45037 ft 524 kts 350°
2026-05-05 01:01 39.58120 -2.46793 45029 ft 524 kts 350°
2026-05-05 01:02 39.65400 -2.47488 45027 ft 524 kts 350°
2026-05-05 01:02 39.72663 -2.48185 45020 ft 524 kts 350°
2026-05-05 01:03 39.79949 -2.48885 45020 ft 523 kts 351°
2026-05-05 01:03 39.87220 -2.49584 45021 ft 523 kts 351°
2026-05-05 01:04 39.94439 -2.50284 45019 ft 524 kts 351°
2026-05-05 01:04 40.05348 -2.51344 45014 ft 523 kts 351°
2026-05-05 01:05 40.12617 -2.52054 45009 ft 524 kts 351°
2026-05-05 01:05 40.19861 -2.52762 45008 ft 524 kts 351°
2026-05-05 01:06 40.27154 -2.53474 45009 ft 524 kts 351°
2026-05-05 01:06 40.34397 -2.54186 45002 ft 524 kts 351°
2026-05-05 01:07 40.41682 -2.54879 45006 ft 523 kts 351°
2026-05-05 01:07 40.48905 -2.55490 45006 ft 522 kts 351°
2026-05-05 01:08 40.56157 -2.56158 45005 ft 521 kts 351°
2026-05-05 01:08 40.63411 -2.56795 44998 ft 520 kts 351°
2026-05-05 01:09 40.70584 -2.57445 45013 ft 519 kts 351°
2026-05-05 01:09 40.77802 -2.58090 45015 ft 518 kts 351°
2026-05-05 01:10 40.84954 -2.58736 45014 ft 518 kts 351°
2026-05-05 01:10 40.92146 -2.59384 45011 ft 517 kts 352°
2026-05-05 01:11 40.99335 -2.60034 45017 ft 517 kts 352°
2026-05-05 01:11 41.06530 -2.60671 45019 ft 517 kts 352°
2026-05-05 01:12 41.13676 -2.61308 45017 ft 518 kts 352°
2026-05-05 01:12 41.20893 -2.61952 45018 ft 518 kts 352°
2026-05-05 01:13 41.28107 -2.62504 44999 ft 522 kts 356°
2026-05-05 01:13 41.35296 -2.61061 45007 ft 532 kts 13°
2026-05-05 01:14 41.42137 -2.57067 45024 ft 538 kts 25°
2026-05-05 01:14 41.48726 -2.52259 45015 ft 538 kts 23°
2026-05-05 01:15 41.55696 -2.48976 45017 ft 532 kts 11°
2026-05-05 01:15 41.62881 -2.46494 45009 ft 534 kts 13°
2026-05-05 01:16 41.69938 -2.43350 45027 ft 534 kts 14°
2026-05-05 01:16 41.77021 -2.40620 45024 ft 532 kts 13°
2026-05-05 01:17 41.84121 -2.37624 45018 ft 533 kts 14°
2026-05-05 01:17 41.91176 -2.34772 45011 ft 532 kts 13°
2026-05-05 01:18 41.98270 -2.31841 45012 ft 532 kts 14°
2026-05-05 01:18 42.05345 -2.28924 45011 ft 530 kts 13°
2026-05-05 01:19 42.12364 -2.26032 45016 ft 530 kts 14°
2026-05-05 01:19 42.19435 -2.23093 45022 ft 529 kts 14°
2026-05-05 01:20 42.26467 -2.20185 45016 ft 529 kts 14°
2026-05-05 01:20 42.33460 -2.17267 45025 ft 528 kts 14°
2026-05-05 01:21 42.40481 -2.14346 45027 ft 527 kts 14°
2026-05-05 01:21 42.47514 -2.11401 45028 ft 527 kts 14°
2026-05-05 01:22 42.54482 -2.08485 45025 ft 527 kts 14°
2026-05-05 01:22 42.61500 -2.05535 45024 ft 527 kts 14°
2026-05-05 01:23 42.68511 -2.02586 45025 ft 527 kts 14°
2026-05-05 01:23 42.75481 -1.99644 45029 ft 527 kts 14°
2026-05-05 01:24 42.82506 -1.96674 45026 ft 528 kts 14°
2026-05-05 01:24 42.89494 -1.93711 45020 ft 528 kts 14°
2026-05-05 01:25 42.96527 -1.90722 45031 ft 528 kts 15°
2026-05-05 01:25 43.03549 -1.87731 45031 ft 528 kts 15°
2026-05-05 01:26 43.10530 -1.84750 45028 ft 528 kts 15°
2026-05-05 01:26 43.17552 -1.81744 45025 ft 528 kts 15°
2026-05-05 01:27 43.24570 -1.78733 45031 ft 528 kts 15°
2026-05-05 01:27 43.31554 -1.75729 45028 ft 528 kts 15°
2026-05-05 01:28 43.38552 -1.72595 45029 ft 529 kts 17°
2026-05-05 01:28 43.45555 -1.69391 45030 ft 529 kts 16°
2026-05-05 01:29 43.52506 -1.66148 45028 ft 530 kts 17°
2026-05-05 01:29 43.59520 -1.62894 45024 ft 531 kts 16°
2026-05-05 01:30 43.66504 -1.59636 45016 ft 531 kts 17°
2026-05-05 01:30 43.73522 -1.56355 45010 ft 531 kts 16°
2026-05-05 01:31 43.80492 -1.53091 44997 ft 531 kts 17°
2026-05-05 01:31 43.87521 -1.49789 44262 ft 540 kts 17°
2026-05-05 01:32 43.91105 -1.48107 43574 ft 543 kts 17°
2026-05-05 01:32 43.94658 -1.46430 42862 ft 545 kts 17°
2026-05-05 01:32 43.98258 -1.44729 42140 ft 546 kts 17°
2026-05-05 01:32 44.01856 -1.43031 41426 ft 547 kts 17°
2026-05-05 01:33 44.05463 -1.41327 40705 ft 545 kts 17°
2026-05-05 01:33 44.09050 -1.39627 39995 ft 544 kts 17°
2026-05-05 01:33 44.12644 -1.37922 39278 ft 545 kts 17°
2026-05-05 01:33 44.16233 -1.36219 38534 ft 547 kts 17°
2026-05-05 01:34 44.19801 -1.34523 37781 ft 546 kts 17°
2026-05-05 01:34 44.23399 -1.32809 37060 ft 546 kts 17°
2026-05-05 01:34 44.25815 -1.31657 36578 ft 546 kts 18°
2026-05-05 01:34 44.29374 -1.29960 35862 ft 546 kts 18°
2026-05-05 01:35 44.33021 -1.28220 35132 ft 547 kts 18°
2026-05-05 01:35 44.36578 -1.26518 34415 ft 547 kts 18°
2026-05-05 01:35 44.40186 -1.24789 33698 ft 546 kts 18°
2026-05-05 01:35 44.43775 -1.23069 32967 ft 543 kts 18°
2026-05-05 01:36 44.47338 -1.21358 32251 ft 540 kts 19°
2026-05-05 01:36 44.50902 -1.19645 31538 ft 537 kts 19°
2026-05-05 01:36 44.54432 -1.17945 30839 ft 533 kts 19°
2026-05-05 01:36 44.57885 -1.16281 30143 ft 530 kts 19°
2026-05-05 01:37 44.61374 -1.14597 29387 ft 525 kts 20°
2026-05-05 01:37 44.64820 -1.12932 28699 ft 521 kts 20°
2026-05-05 01:37 44.68241 -1.11276 28016 ft 518 kts 20°
2026-05-05 01:37 44.71605 -1.09647 27346 ft 515 kts 20°
2026-05-05 01:38 44.74996 -1.08002 26665 ft 512 kts 20°
2026-05-05 01:38 44.78362 -1.06367 25992 ft 509 kts 20°
2026-05-05 01:38 44.81709 -1.04740 25317 ft 505 kts 20°
2026-05-05 01:38 44.85014 -1.03130 24658 ft 501 kts 20°
2026-05-05 01:39 44.88258 -1.01550 24007 ft 496 kts 20°
2026-05-05 01:39 44.91500 -0.99968 23322 ft 491 kts 20°
2026-05-05 01:39 44.94714 -0.98397 22660 ft 483 kts 20°
2026-05-05 01:39 44.97873 -0.96851 22036 ft 475 kts 19°
2026-05-05 01:40 45.00987 -0.95327 21414 ft 469 kts 19°
2026-05-05 01:40 45.04014 -0.93843 20805 ft 462 kts 19°
2026-05-05 01:40 45.07036 -0.92359 20202 ft 456 kts 19°
2026-05-05 01:40 45.10024 -0.90891 19607 ft 450 kts 19°
2026-05-05 01:41 45.12977 -0.89439 19014 ft 445 kts 19°
2026-05-05 01:41 45.15882 -0.88007 18431 ft 439 kts 19°
2026-05-05 01:41 45.18800 -0.86885 17761 ft 432 kts
2026-05-05 01:41 45.21721 -0.87003 17289 ft 420 kts 350°
2026-05-05 01:42 45.24544 -0.87959 16791 ft 411 kts 344°
2026-05-05 01:42 45.27285 -0.89014 16251 ft 405 kts 343°
2026-05-05 01:42 45.29976 -0.90031 15719 ft 401 kts 344°
2026-05-05 01:42 45.32660 -0.91004 15190 ft 396 kts 345°
2026-05-05 01:43 45.35317 -0.91973 14666 ft 391 kts 344°
2026-05-05 01:43 45.37940 -0.92954 14149 ft 387 kts 344°
2026-05-05 01:43 45.40538 -0.93927 13622 ft 383 kts 344°
2026-05-05 01:43 45.43084 -0.94868 13107 ft 372 kts 344°
2026-05-05 01:44 45.45554 -0.95780 12619 ft 361 kts 344°
2026-05-05 01:44 45.47923 -0.96664 12156 ft 352 kts 344°
2026-05-05 01:44 45.50271 -0.97541 11695 ft 343 kts 344°
2026-05-05 01:44 45.52545 -0.98387 11249 ft 333 kts 344°
2026-05-05 01:45 45.54755 -0.99210 10816 ft 323 kts 344°
2026-05-05 01:45 45.56896 -1.00009 10398 ft 314 kts 344°
2026-05-05 01:45 45.58988 -1.00792 9984 ft 307 kts 344°
2026-05-05 01:45 45.61035 -1.01557 9560 ft 301 kts 344°
2026-05-05 01:46 45.63034 -1.02304 9169 ft 292 kts 344°
2026-05-05 01:46 45.64974 -1.03030 8784 ft 283 kts 344°
2026-05-05 01:46 45.66858 -1.03736 8413 ft 276 kts 344°
2026-05-05 01:46 45.68673 -1.04417 8056 ft 271 kts 343°
2026-05-05 01:47 45.70488 -1.05097 7702 ft 267 kts 343°
2026-05-05 01:47 45.72274 -1.05761 7357 ft 263 kts 345°
2026-05-05 01:47 45.74094 -1.05825 6920 ft 267 kts 10°
2026-05-05 01:47 45.75863 -1.05042 6659 ft 265 kts 16°
2026-05-05 01:48 45.77619 -1.04223 6326 ft 266 kts 16°
2026-05-05 01:48 45.79375 -1.03434 5959 ft 267 kts 15°
2026-05-05 01:48 45.81154 -1.02638 5598 ft 268 kts 15°
2026-05-05 01:48 45.82933 -1.01833 5242 ft 267 kts 15°
2026-05-05 01:49 45.84706 -1.01028 4883 ft 267 kts 15°
2026-05-05 01:49 45.86472 -1.00229 4515 ft 265 kts 15°
2026-05-05 01:49 45.88227 -0.99434 4162 ft 262 kts 15°
2026-05-05 01:49 45.89956 -0.98649 3815 ft 259 kts 15°
2026-05-05 01:50 45.91674 -0.97870 3468 ft 256 kts 15°
2026-05-05 01:50 45.93348 -0.97109 3132 ft 254 kts 15°
2026-05-05 01:50 45.95027 -0.96346 2793 ft 253 kts 15°
2026-05-05 01:50 45.96706 -0.95582 2521 ft 251 kts 15°
2026-05-05 01:51 45.98357 -0.94832 2508 ft 247 kts 15°
2026-05-05 01:51 45.99992 -0.94089 2520 ft 247 kts 15°
2026-05-05 01:51 46.01629 -0.93343 2521 ft 247 kts 15°
2026-05-05 01:51 46.03250 -0.92604 2520 ft 247 kts 15°
2026-05-05 01:52 46.04899 -0.91852 2520 ft 248 kts 15°
2026-05-05 01:52 46.06560 -0.91138 2501 ft 247 kts 11°
2026-05-05 01:52 46.08259 -0.90943 2515 ft 244 kts 360°
2026-05-05 01:52 46.09931 -0.90872 2515 ft 234 kts 360°
2026-05-05 01:53 46.11513 -0.90765 2504 ft 218 kts
2026-05-05 01:53 46.12941 -0.90655 2501 ft 200 kts
2026-05-05 01:53 46.14283 -0.90560 2499 ft 186 kts 360°
2026-05-05 01:53 46.15517 -0.90758 2458 ft 174 kts 337°
2026-05-05 01:54 46.16496 -0.91732 2490 ft 173 kts 312°
2026-05-05 01:54 46.17069 -0.93270 2501 ft 177 kts 287°
2026-05-05 01:54 46.17178 -0.95040 2521 ft 180 kts 274°
2026-05-05 01:54 46.17229 -0.96854 2520 ft 182 kts 274°
2026-05-05 01:55 46.17291 -0.98686 2518 ft 182 kts 274°
2026-05-05 01:55 46.17348 -1.00507 2519 ft 180 kts 274°
2026-05-05 01:55 46.17404 -1.02279 2495 ft 176 kts 274°
2026-05-05 01:55 46.17455 -1.03986 2254 ft 164 kts 274°
2026-05-05 01:56 46.17503 -1.05584 2019 ft 153 kts 275°
2026-05-05 01:56 46.17548 -1.07082 1794 ft 144 kts 275°
2026-05-05 01:56 46.17591 -1.08479 1600 ft 138 kts 275°
2026-05-05 01:56 46.17631 -1.09832 1407 ft 130 kts 275°
2026-05-05 01:57 46.17670 -1.11111 1219 ft 127 kts 275°
2026-05-05 01:57 46.17708 -1.12374 1041 ft 125 kts 274°
2026-05-05 01:57 46.17737 -1.13631 845 ft 125 kts 273°
2026-05-05 01:57 46.17771 -1.14878 640 ft 124 kts 274°
2026-05-05 01:58 46.17801 -1.16120 460 ft 123 kts 274°
2026-05-05 01:58 46.17848 -1.17342 322 ft 124 kts 275°
2026-05-05 01:58 46.17890 -1.18582 158 ft 122 kts 275°
2026-05-05 01:58 46.17926 -1.19733 74 ft 96 kts 272°
2026-05-05 01:59 46.17943 -1.20325 68 ft 36 kts 273°
2026-05-05 01:59 46.17953 -1.20565 65 ft 16 kts 280°
2026-05-05 01:59 46.17954 -1.20658 59 ft 5 kts 191°
2026-05-05 01:59 46.17947 -1.20590 64 ft 12 kts 90°
2026-05-05 02:00 46.17945 -1.20421 67 ft 22 kts 92°
2026-05-05 02:00 46.17938 -1.20152 70 ft 29 kts 92°
2026-05-05 02:00 46.17927 -1.19876 70 ft 27 kts 94°
2026-05-05 02:00 46.17918 -1.19623 74 ft 22 kts 91°
2026-05-05 02:01 46.17877 -1.19520 75 ft 13 kts 170°
2026-05-05 02:01 46.17781 -1.19533 74 ft 15 kts 180°
2026-05-05 02:01 46.17710 -1.19542 70 ft 7 kts 182°
2026-05-05 02:01 46.17700 -1.19543 72 ft 0 kts 183°